Chicago, IL

2:41 PM CST on November 12, 2019 (GMT -0600)
Chicago-O'Hare International

Weather History for KORD - May, 2019

Change the Weather History Date:

Sunday, May 19, 2019

  Actual Average Record
Temperature  
Mean Temperature 60 °F 60 °F  
Max Temperature 73 °F 71 °F 94 °F (1977)
Min Temperature 46 °F 49 °F 36 °F (1993)
Degree Days  
Heating Degree Days 5 6  
Month to date heating degree days 199 164  
Since 1 July heating degree days 6388 6231  
Cooling Degree Days 0 2  
Month to date cooling degree days 4 18  
Year to date cooling degree days 8 28  
Growing Degree Days 10 (Base 50)    
Moisture  
Dew Point 54 °F    
Average Humidity 78    
Maximum Humidity 100    
Minimum Humidity 53    
Precipitation  
Precipitation 0.07 in 0.12 in 1.53 in (1949)
Month to date precipitation 4.15 2.24  
Year to date precipitation 17.03 11.64  
Snow  
Snow 0.00 in 0.00 in 0.00 in ()
Month to date snowfall 0.0 0.0  
Since 1 July snowfall 49.5 36.3  
Snow Depth 0.00 in    
Sea Level Pressure  
Sea Level Pressure 29.65 in    
Wind  
Wind Speed 11 mph ()    
Max Wind Speed 29 mph    
Max Gust Speed 43 mph    
Visibility 8.1 miles    
Events Rain , Thunderstorm    
T = Trace of Precipitation, MM = Missing Value Source: Averaged Metar Reports

Daily Weather History Graph

Daily Weather History Graph

Search for Another Location

Airport or City:

Astronomy

May. 19, 2019 Rise Set
Actual Time 5:27 AM CDT 8:09 PM CDT
Civil Twilight 4:55 AM CDT 8:41 PM CDT
Nautical Twilight 4:14 AM CDT 9:22 PM CDT
Astronomical Twilight 3:28 AM CDT 10:08 PM CDT
Moon 9:09 PM CDT (5/19) 6:13 AM CDT (5/19)
Length of Visible Light 15h 46m
Length of Day
14h 41m
Full, 99% of the Moon is Illuminated
May 19
Full
May 26
Last Quarter
Jun 3
New
Jun 10
First Quarter
Jun 17
Full

Hourly Weather History & Observations

Time (CDT) Temp. Windchill Dew Point Humidity Pressure Visibility Wind Dir Wind Speed Gust Speed Precip Events Conditions
12:02 AM 50.0 °F - 48.9 °F 96% 29.72 in 5.0 mi ENE 10.4 mph - N/A   Overcast
12:35 AM 48.9 °F - 46.9 °F 93% 29.71 in 4.0 mi NE 10.4 mph - N/A   Overcast
12:51 AM 48.0 °F - 46.9 °F 96% 29.70 in 4.0 mi NE 10.4 mph - N/A   Overcast
1:32 AM 46.9 °F - 46.0 °F 97% 29.68 in 0.5 mi NNE 9.2 mph - N/A   Overcast
1:49 AM 46.4 °F 42.9 °F 46.4 °F 100% 29.67 in 1.5 mi NNE 6.9 mph - N/A   Overcast
1:51 AM 46.9 °F - 46.0 °F 97% 29.67 in 1.5 mi NNE 8.1 mph - N/A   Overcast
2:03 AM 48.0 °F - 46.9 °F 96% 29.68 in 7.0 mi NNE 8.1 mph - 0.00 in Rain Light Rain
2:51 AM 48.9 °F - 48.0 °F 97% 29.64 in 5.0 mi ENE 6.9 mph - 0.04 in Rain Light Rain
3:51 AM 51.1 °F - 48.9 °F 92% 29.63 in 6.0 mi NE 3.5 mph - 0.00 in   Overcast
4:51 AM 52.0 °F - 50.0 °F 93% 29.62 in 5.0 mi East 3.5 mph - 0.02 in Rain Light Rain
5:21 AM 53.1 °F - 52.0 °F 96% 29.61 in 4.0 mi SSE 3.5 mph - 0.01 in Rain Light Rain
5:44 AM 54.0 °F - 53.1 °F 97% 29.60 in 5.0 mi Calm Calm - 0.01 in   Mostly Cloudy
5:51 AM 54.0 °F - 53.1 °F 97% 29.61 in 5.0 mi Calm Calm - 0.01 in   Mostly Cloudy
6:51 AM 66.0 °F - 61.0 °F 84% 29.59 in 10.0 mi South 11.5 mph - N/A   Mostly Cloudy
7:51 AM 69.1 °F - 60.1 °F 73% 29.59 in 10.0 mi SSW 15.0 mph 24.2 mph N/A   Mostly Cloudy
8:16 AM 68.0 °F - 60.1 °F 76% 29.60 in 10.0 mi SSW 17.3 mph 34.5 mph N/A   Mostly Cloudy
8:51 AM 66.9 °F - 60.1 °F 79% 29.59 in 10.0 mi SSW 17.3 mph 26.5 mph 0.00 in Rain Light Rain
9:51 AM 66.9 °F - 60.1 °F 79% 29.60 in 10.0 mi SSW 15.0 mph 25.3 mph 0.00 in   Overcast
10:51 AM 68.0 °F - 61.0 °F 78% 29.61 in 10.0 mi SSW 20.7 mph 32.2 mph 0.00 in   Mostly Cloudy
11:42 AM 70.0 °F - 61.0 °F 73% 29.60 in 10.0 mi SSW 21.9 mph 36.8 mph N/A   Scattered Clouds
11:51 AM 71.1 °F - 61.0 °F 70% 29.60 in 10.0 mi SSW 16.1 mph 29.9 mph N/A   Mostly Cloudy
12:19 PM 70.0 °F - 60.1 °F 71% 29.58 in 10.0 mi SW 15.0 mph 26.5 mph N/A   Mostly Cloudy
12:42 PM 72.0 °F - 61.0 °F 68% 29.58 in 10.0 mi SSW 16.1 mph 24.2 mph N/A   Mostly Cloudy
12:51 PM 73.0 °F - 61.0 °F 66% 29.57 in 10.0 mi SW 12.7 mph 27.6 mph N/A   Mostly Cloudy
1:35 PM 70.0 °F - 60.1 °F 71% 29.57 in 10.0 mi SSW 16.1 mph 26.5 mph 0.00 in Thunderstorm Thunderstorm
1:51 PM 73.0 °F - 59.0 °F 61% 29.56 in 10.0 mi SSW 19.6 mph 29.9 mph 0.00 in Thunderstorm Mostly Cloudy
1:55 PM 73.0 °F - 60.1 °F 64% 29.56 in 10.0 mi SSW 18.4 mph 28.8 mph N/A   Mostly Cloudy
2:51 PM 73.0 °F - 55.0 °F 53% 29.57 in 10.0 mi WSW 24.2 mph 42.6 mph 0.00 in   Mostly Cloudy
3:51 PM 72.0 °F - 57.0 °F 59% 29.58 in 10.0 mi West 25.3 mph 39.1 mph N/A   Mostly Cloudy
4:51 PM 71.1 °F - 55.0 °F 57% 29.60 in 10.0 mi West 20.7 mph 29.9 mph N/A   Mostly Cloudy
5:51 PM 69.1 °F - 54.0 °F 58% 29.64 in 10.0 mi West 23.0 mph 33.4 mph N/A   Mostly Cloudy
6:51 PM 66.0 °F - 54.0 °F 65% 29.67 in 10.0 mi West 18.4 mph 35.7 mph N/A   Mostly Cloudy
7:51 PM 64.9 °F - 54.0 °F 68% 29.68 in 10.0 mi West 15.0 mph 28.8 mph N/A   Mostly Cloudy
8:51 PM 62.1 °F - 52.0 °F 70% 29.72 in 10.0 mi West 17.3 mph 32.2 mph N/A   Scattered Clouds
9:51 PM 60.1 °F - 51.1 °F 72% 29.75 in 10.0 mi West 11.5 mph 26.5 mph N/A   Overcast
10:15 PM 59.0 °F - 51.1 °F 75% 29.78 in 10.0 mi WSW 9.2 mph 24.2 mph N/A   Overcast
10:23 PM 59.0 °F - 51.1 °F 75% 29.78 in 10.0 mi WSW 12.7 mph 20.7 mph N/A   Overcast
10:51 PM 57.9 °F - 50.0 °F 75% 29.78 in 10.0 mi West 17.3 mph 31.1 mph N/A   Overcast
10:59 PM 57.9 °F - 48.9 °F 72% 29.79 in 10.0 mi West 17.3 mph 25.3 mph N/A   Overcast
11:19 PM 57.0 °F - 48.0 °F 72% 29.79 in 10.0 mi West 16.1 mph 28.8 mph N/A   Overcast
11:51 PM 55.9 °F - 48.0 °F 75% 29.80 in 10.0 mi West 13.8 mph 23.0 mph N/A   Overcast